Forside
METAR-TAF:

METAR-TAF

Lufthavne :

Grove, Oklahoma, USA

Breddekreds: 36-36-19N, længdekreds: 094-44-19W, højde: 254 m

Aktuelle vejr

Denne rapport blev lavet for 10 minutter siden, kl. 12:15 UTC
Vind 12 kt fra sydsydøst med vindstød på up til 20 kt
Temperatur 9°C
Fugtighed 71%
Tryk 1011 hPa
Sigt: 16.1 km
Overskyet i en højde af 2900 ft

METAR: KGMJ 221215Z AUTO 16012G20KT 10SM OVC029 09/04 A2984 RMK AO2

Tid: 06:25 (12:25 UTC)


TAF: fraværende

Vejrobservationer og prognoser fra mere end 4000 lufthavne (METAR og TAF).

De gule og røde prikker repræsenterer de meteorologiske stationer.

Flyt musen over at se navnet på stationen.

Så klik over at se vejr observationer og prognoser.

At skifte det kort: Klik på de grønne knapper med et sort kors for at zoome ind; på den grønne knap med en bindestreg for at zoome ud; eller på de grønne pile for tilstødende kort.


METAR-TAF: